| time (UTC) | temp F | wind direction | speed knots | gust knots | rain 1hr in | rain 24hr in | rain mn in | humidity % | barometer mb |
| 20260508225006 | 80 | 211 | 0.0 | 1.7 | 0.00 | 0.00 | 0.00 | 39 | 1008.1 |
| 20260508224510 | 80 | 176 | 0.0 | 2.6 | 0.00 | 0.00 | 0.00 | 39 | 1008.1 |
| 20260508224009 | 80 | 177 | 1.7 | 3.5 | 0.00 | 0.00 | 0.00 | 38 | 1007.9 |
| 20260508223504 | 80 | 181 | 1.7 | 3.5 | 0.00 | 0.00 | 0.00 | 39 | 1008.0 |
| 20260508223004 | 80 | 152 | 1.7 | 3.5 | 0.00 | 0.00 | 0.00 | 39 | 1008.0 |
| 20260508222503 | 80 | 144 | 1.7 | 3.5 | 0.00 | 0.00 | 0.00 | 39 | 1008.0 |
| 20260508222002 | 81 | 142 | 1.7 | 4.3 | 0.00 | 0.00 | 0.00 | 39 | 1008.2 |
| 20260508221505 | 80 | 203 | 0.9 | 3.5 | 0.00 | 0.00 | 0.00 | 39 | 1008.3 |
| 20260508220600 | 80 | 273 | 0.9 | 4.3 | 0.00 | 0.00 | 0.00 | 39 | 1008.5 |
| 20260508220501 | 80 | 273 | 0.0 | 4.3 | 0.00 | 0.00 | 0.00 | 39 | 1008.5 |
| 20260508215600 | 80 | 203 | 2.6 | 7.0 | 0.00 | 0.00 | 0.00 | 39 | 1008.6 |
| 20260508215059 | 80 | 39 | 0.9 | 5.2 | 0.00 | 0.00 | 0.00 | 40 | 1008.6 |
| 20260508214608 | 80 | 48 | 1.7 | 5.2 | 0.00 | 0.00 | 0.00 | 41 | 1008.6 |
| 20260508214057 | 80 | 189 | 1.7 | 5.2 | 0.00 | 0.00 | 0.00 | 41 | 1008.8 |
| 20260508213556 | 79 | 49 | 3.5 | 5.2 | 0.00 | 0.00 | 0.00 | 41 | 1008.8 |
| 20260508213055 | 79 | 150 | 0.9 | 4.3 | 0.00 | 0.00 | 0.00 | 43 | 1008.8 |
| 20260508212555 | 78 | 285 | 1.7 | 5.2 | 0.00 | 0.00 | 0.00 | 44 | 1008.7 |
| 20260508212055 | 78 | 218 | 2.6 | 5.2 | 0.00 | 0.00 | 0.00 | 44 | 1008.9 |
| 20260508211555 | 78 | 256 | 2.6 | 6.1 | 0.00 | 0.00 | 0.00 | 44 | 1009.0 |
| 20260508211153 | 78 | 251 | 2.6 | 7.0 | 0.00 | 0.00 | 0.00 | 44 | 1009.1 |
| 20260508210557 | 78 | 251 | 2.6 | 7.0 | 0.00 | 0.00 | 0.00 | 44 | 1009.1 |
| 20260508210055 | 79 | 224 | 4.3 | 7.0 | 0.00 | 0.00 | 0.00 | 43 | 1009.3 |
| 20260508205552 | 78 | 153 | 0.9 | 5.2 | 0.00 | 0.00 | 0.00 | 46 | 1009.3 |
| 20260508205050 | 77 | 238 | 1.7 | 5.2 | 0.00 | 0.00 | 0.00 | 47 | 1009.4 |
| 20260508204551 | 77 | 185 | 2.6 | 7.0 | 0.00 | 0.00 | 0.00 | 47 | 1009.4 |
| 20260508204048 | 77 | 99 | 1.7 | 6.1 | 0.00 | 0.00 | 0.00 | 48 | 1009.4 |
| 20260508203554 | 76 | 143 | 0.0 | 8.7 | 0.00 | 0.00 | 0.00 | 48 | 1009.6 |
| 20260508203047 | 76 | 139 | 3.5 | 8.7 | 0.00 | 0.00 | 0.00 | 48 | 1009.8 |
| 20260508202546 | 76 | 156 | 2.6 | 5.2 | 0.00 | 0.00 | 0.00 | 48 | 1009.8 |
| 20260508202044 | 75 | 35 | 1.7 | 4.3 | 0.00 | 0.00 | 0.00 | 49 | 1010.1 |
| 20260508201544 | 75 | 258 | 2.6 | 5.2 | 0.00 | 0.00 | 0.00 | 51 | 1010.1 |
| 20260508201144 | 74 | 127 | 2.6 | 6.1 | 0.00 | 0.00 | 0.00 | 51 | 1010.2 |
| 20260508200542 | 74 | 202 | 1.7 | 6.1 | 0.00 | 0.00 | 0.00 | 51 | 1010.3 |
| 20260508200044 | 74 | 195 | 2.6 | 7.8 | 0.00 | 0.00 | 0.00 | 51 | 1010.4 |
| 20260508195541 | 74 | 39 | 3.5 | 7.8 | 0.00 | 0.00 | 0.00 | 51 | 1010.5 |
| 20260508195039 | 74 | 60 | 4.3 | 7.0 | 0.00 | 0.00 | 0.00 | 52 | 1010.6 |
| 20260508194539 | 73 | 117 | 2.6 | 5.2 | 0.00 | 0.00 | 0.00 | 52 | 1010.6 |
| 20260508194038 | 73 | 193 | 1.7 | 5.2 | 0.00 | 0.00 | 0.00 | 53 | 1010.8 |
| 20260508193537 | 73 | 204 | 2.6 | 5.2 | 0.00 | 0.00 | 0.00 | 52 | 1010.8 |
| 20260508193045 | 73 | 158 | 3.5 | 5.2 | 0.00 | 0.00 | 0.00 | 53 | 1010.9 |
| 20260508192535 | 72 | 144 | 0.9 | 4.3 | 0.00 | 0.00 | 0.00 | 54 | 1010.9 |
| 20260508192038 | 72 | 90 | 0.9 | 5.2 | 0.00 | 0.00 | 0.00 | 54 | 1011.0 |
| 20260508191545 | 71 | 85 | 1.7 | 4.3 | 0.00 | 0.00 | 0.00 | 56 | 1011.1 |
| 20260508191132 | 71 | 85 | 1.7 | 4.3 | 0.00 | 0.00 | 0.00 | 56 | 1011.3 |
| 20260508190535 | 71 | 101 | 2.6 | 5.2 | 0.00 | 0.00 | 0.00 | 56 | 1011.3 |
| 20260508190049 | 71 | 234 | 0.9 | 7.0 | 0.00 | 0.00 | 0.00 | 56 | 1011.4 |
| 20260508185536 | 70 | 127 | 1.7 | 5.2 | 0.00 | 0.00 | 0.00 | 56 | 1011.4 |
| 20260508185031 | 70 | 208 | 1.7 | 5.2 | 0.00 | 0.00 | 0.00 | 57 | 1011.5 |
| 20260508184534 | 69 | 192 | 2.6 | 6.1 | 0.00 | 0.00 | 0.00 | 57 | 1011.6 |
| 20260508184031 | 69 | 159 | 1.7 | 4.3 | 0.00 | 0.00 | 0.00 | 57 | 1011.8 |
| 20260508183527 | 68 | 154 | 0.9 | 4.3 | 0.00 | 0.00 | 0.00 | 58 | 1011.9 |
| 20260508183035 | 68 | 178 | 2.6 | 7.8 | 0.00 | 0.00 | 0.00 | 59 | 1012.1 |
| 20260508182524 | 67 | 162 | 3.5 | 7.8 | 0.00 | 0.00 | 0.00 | 59 | 1012.1 |
| 20260508182024 | 67 | 199 | 2.6 | 5.2 | 0.00 | 0.00 | 0.00 | 59 | 1012.1 |
| 20260508181524 | 67 | 191 | 2.6 | 5.2 | 0.00 | 0.00 | 0.00 | 59 | 1012.2 |
| 20260508181124 | 66 | 160 | 2.6 | 8.7 | 0.00 | 0.00 | 0.00 | 60 | 1012.2 |
| 20260508180521 | 66 | 175 | 2.6 | 8.7 | 0.00 | 0.00 | 0.00 | 60 | 1012.4 |
| 20260508180020 | 66 | 159 | 3.5 | 8.7 | 0.00 | 0.00 | 0.00 | 60 | 1012.6 |
| 20260508175518 | 66 | 213 | 2.6 | 7.8 | 0.00 | 0.00 | 0.00 | 60 | 1012.7 |
| 20260508175018 | 65 | 237 | 1.7 | 4.3 | 0.00 | 0.00 | 0.00 | 60 | 1012.7 |
| 20260508174518 | 65 | 212 | 2.6 | 7.0 | 0.00 | 0.00 | 0.00 | 60 | 1012.7 |
| 20260508174017 | 65 | 243 | 3.5 | 8.7 | 0.00 | 0.00 | 0.00 | 60 | 1012.9 |
| 20260508173517 | 65 | 227 | 5.2 | 8.7 | 0.00 | 0.00 | 0.00 | 60 | 1013.0 |
| 20260508173016 | 65 | 209 | 3.5 | 7.8 | 0.00 | 0.00 | 0.00 | 60 | 1012.9 |
| 20260508172517 | 65 | 254 | 3.5 | 7.0 | 0.00 | 0.00 | 0.00 | 60 | 1013.0 |
| 20260508172014 | 65 | 198 | 2.6 | 6.1 | 0.00 | 0.00 | 0.00 | 61 | 1013.1 |
| 20260508171517 | 65 | 275 | 3.5 | 6.1 | 0.00 | 0.00 | 0.00 | 62 | 1013.1 |
| 20260508171114 | 64 | 231 | 1.7 | 4.3 | 0.00 | 0.00 | 0.00 | 62 | 1013.2 |
| 20260508170513 | 64 | 232 | 1.7 | 4.3 | 0.00 | 0.00 | 0.00 | 62 | 1013.1 |
| 20260508170013 | 64 | 199 | 2.6 | 6.1 | 0.00 | 0.00 | 0.00 | 62 | 1013.1 |
| 20260508165512 | 64 | 215 | 2.6 | 6.1 | 0.00 | 0.00 | 0.00 | 62 | 1013.1 |
| 20260508165015 | 64 | 185 | 2.6 | 5.2 | 0.00 | 0.00 | 0.00 | 62 | 1013.1 |
| 20260508164521 | 64 | 154 | 2.6 | 7.0 | 0.00 | 0.00 | 0.00 | 62 | 1013.1 |
| 20260508164011 | 64 | 179 | 2.6 | 7.0 | 0.00 | 0.00 | 0.00 | 63 | 1013.2 |
| 20260508163509 | 64 | 197 | 2.6 | 7.0 | 0.00 | 0.00 | 0.00 | 63 | 1013.2 |
| 20260508163014 | 63 | 195 | 2.6 | 5.2 | 0.00 | 0.00 | 0.00 | 63 | 1013.3 |
| 20260508162509 | 63 | 218 | 1.7 | 7.8 | 0.00 | 0.00 | 0.00 | 63 | 1013.3 |
| 20260508162008 | 63 | 196 | 4.3 | 7.8 | 0.00 | 0.00 | 0.00 | 63 | 1013.3 |
| 20260508161510 | 63 | 187 | 3.5 | 7.8 | 0.00 | 0.00 | 0.00 | 63 | 1013.4 |
| 20260508161108 | 63 | 208 | 4.3 | 7.8 | 0.00 | 0.00 | 0.00 | 63 | 1013.5 |
| 20260508160511 | 63 | 203 | 3.5 | 7.8 | 0.00 | 0.00 | 0.00 | 63 | 1013.3 |
| 20260508160011 | 63 | 206 | 4.3 | 9.6 | 0.00 | 0.00 | 0.00 | 63 | 1013.5 |
| 20260508155512 | 63 | 176 | 6.1 | 9.6 | 0.00 | 0.00 | 0.00 | 63 | 1013.3 |
| 20260508155010 | 63 | 192 | 5.2 | 9.6 | 0.00 | 0.00 | 0.00 | 63 | 1013.4 |
| 20260508154510 | 63 | 204 | 7.0 | 9.6 | 0.00 | 0.00 | 0.00 | 63 | 1013.3 |
| 20260508154010 | 63 | 196 | 4.3 | 11.3 | 0.00 | 0.00 | 0.00 | 63 | 1013.4 |
| 20260508153509 | 63 | 202 | 7.0 | 11.3 | 0.00 | 0.00 | 0.00 | 63 | 1013.5 |
| 20260508153019 | 63 | 185 | 4.3 | 9.6 | 0.00 | 0.00 | 0.00 | 63 | 1013.4 |
| 20260508152514 | 63 | 202 | 5.2 | 9.6 | 0.00 | 0.00 | 0.00 | 63 | 1013.4 |
| 20260508152013 | 63 | 201 | 4.3 | 8.7 | 0.00 | 0.00 | 0.00 | 64 | 1013.4 |
| 20260508151508 | 63 | 187 | 3.5 | 8.7 | 0.00 | 0.00 | 0.00 | 64 | 1013.5 |
| 20260508151109 | 62 | 160 | 5.2 | 11.3 | 0.00 | 0.00 | 0.00 | 67 | 1013.5 |
| 20260508150502 | 62 | 188 | 6.1 | 11.3 | 0.00 | 0.00 | 0.00 | 67 | 1013.5 |
| 20260508150004 | 62 | 188 | 4.3 | 9.6 | 0.00 | 0.00 | 0.00 | 70 | 1013.4 |
| 20260508145601 | 62 | 139 | 5.2 | 9.6 | 0.00 | 0.00 | 0.00 | 72 | 1013.4 |
| 20260508145059 | 61 | 208 | 3.5 | 9.6 | 0.00 | 0.00 | 0.00 | 75 | 1013.7 |
| 20260508144609 | 61 | 186 | 6.1 | 9.6 | 0.00 | 0.00 | 0.00 | 75 | 1013.5 |
| 20260508144101 | 61 | 189 | 4.3 | 7.8 | 0.00 | 0.00 | 0.00 | 75 | 1013.6 |
| 20260508143557 | 61 | 203 | 4.3 | 8.7 | 0.00 | 0.00 | 0.00 | 75 | 1013.6 |
| 20260508143059 | 60 | 149 | 3.5 | 8.7 | 0.00 | 0.00 | 0.00 | 75 | 1013.6 |
| 20260508142555 | 60 | 205 | 3.5 | 7.8 | 0.00 | 0.00 | 0.00 | 75 | 1013.7 |
| 20260508142055 | 60 | 181 | 3.5 | 8.7 | 0.00 | 0.00 | 0.00 | 75 | 1013.7 |
| 20260508141604 | 60 | 148 | 3.5 | 8.7 | 0.00 | 0.00 | 0.00 | 75 | 1013.8 |
| 20260508141053 | 60 | 166 | 3.5 | 8.7 | 0.00 | 0.00 | 0.00 | 75 | 1013.8 |
| 20260508140056 | 60 | 127 | 3.5 | 8.7 | 0.00 | 0.00 | 0.00 | 75 | 1013.9 |
| 20260508135556 | 59 | 156 | 2.6 | 7.8 | 0.00 | 0.00 | 0.00 | 75 | 1013.9 |
| 20260508135053 | 59 | 202 | 3.5 | 7.8 | 0.00 | 0.00 | 0.00 | 75 | 1013.9 |
| 20260508134553 | 59 | 184 | 3.5 | 7.8 | 0.00 | 0.00 | 0.00 | 75 | 1013.9 |
| 20260508134051 | 59 | 198 | 2.6 | 7.0 | 0.00 | 0.00 | 0.00 | 75 | 1014.0 |
| 20260508133551 | 59 | 182 | 3.5 | 7.0 | 0.00 | 0.00 | 0.00 | 75 | 1013.9 |
| 20260508133052 | 59 | 202 | 3.5 | 7.0 | 0.00 | 0.00 | 0.00 | 75 | 1013.7 |
| 20260508132550 | 59 | 198 | 2.6 | 7.0 | 0.00 | 0.00 | 0.00 | 75 | 1013.9 |
| 20260508132050 | 59 | 179 | 3.5 | 7.0 | 0.00 | 0.00 | 0.00 | 75 | 1013.9 |
| 20260508131603 | 59 | 175 | 2.6 | 8.7 | 0.00 | 0.00 | 0.00 | 75 | 1013.9 |
| 20260508131049 | 59 | 202 | 3.5 | 8.7 | 0.00 | 0.00 | 0.00 | 75 | 1013.9 |
| 20260508130048 | 59 | 191 | 2.6 | 4.3 | 0.00 | 0.00 | 0.00 | 74 | 1013.8 |
| 20260508125550 | 59 | 177 | 1.7 | 4.3 | 0.00 | 0.00 | 0.00 | 74 | 1013.9 |
| 20260508125047 | 59 | 185 | 1.7 | 4.3 | 0.00 | 0.00 | 0.00 | 74 | 1013.8 |
| 20260508124548 | 59 | 182 | 2.6 | 4.3 | 0.00 | 0.00 | 0.00 | 73 | 1013.7 |
| 20260508124047 | 59 | 206 | 1.7 | 4.3 | 0.00 | 0.00 | 0.00 | 73 | 1013.8 |
| 20260508123547 | 59 | 202 | 1.7 | 4.3 | 0.00 | 0.00 | 0.00 | 73 | 1013.7 |
| 20260508123105 | 59 | 170 | 0.9 | 4.3 | 0.00 | 0.00 | 0.00 | 73 | 1013.7 |
| 20260508122549 | 59 | 163 | 0.9 | 4.3 | 0.00 | 0.00 | 0.00 | 73 | 1013.7 |
| 20260508122047 | 59 | 191 | 1.7 | 4.3 | 0.00 | 0.00 | 0.00 | 72 | 1013.7 |
| 20260508121545 | 59 | 154 | 1.7 | 3.5 | 0.00 | 0.00 | 0.00 | 72 | 1013.7 |
| 20260508121044 | 59 | 140 | 0.9 | 3.5 | 0.00 | 0.00 | 0.00 | 71 | 1013.8 |
| 20260508120059 | 59 | 144 | 0.9 | 2.6 | 0.00 | 0.00 | 0.00 | 71 | 1013.8 |
| 20260508115544 | 59 | 157 | 0.9 | 2.6 | 0.00 | 0.00 | 0.00 | 71 | 1013.9 |
| 20260508115042 | 59 | 166 | 0.9 | 3.5 | 0.00 | 0.00 | 0.00 | 71 | 1013.9 |
| 20260508114554 | 59 | 163 | 1.7 | 3.5 | 0.00 | 0.00 | 0.00 | 70 | 1013.7 |
| 20260508114043 | 59 | 143 | 0.9 | 2.6 | 0.00 | 0.00 | 0.00 | 70 | 1013.9 |
| 20260508113543 | 59 | 160 | 0.9 | 2.6 | 0.00 | 0.00 | 0.00 | 70 | 1014.1 |
| 20260508113043 | 59 | 144 | 1.7 | 3.5 | 0.00 | 0.00 | 0.00 | 69 | 1014.1 |
| 20260508112541 | 59 | 117 | 0.9 | 3.5 | 0.00 | 0.00 | 0.00 | 69 | 1013.9 |
| 20260508112041 | 59 | 190 | 0.9 | 2.6 | 0.00 | 0.00 | 0.00 | 69 | 1014.0 |
| 20260508111545 | 59 | 190 | 0.9 | 3.5 | 0.00 | 0.00 | 0.00 | 68 | 1014.1 |
| 20260508111040 | 59 | 191 | 0.9 | 3.5 | 0.00 | 0.00 | 0.00 | 68 | 1014.1 |
| 20260508110040 | 59 | 175 | 1.7 | 6.1 | 0.00 | 0.00 | 0.00 | 67 | 1013.9 |
| 20260508105539 | 59 | 187 | 2.6 | 7.0 | 0.00 | 0.00 | 0.00 | 67 | 1014.0 |
| 20260508105039 | 59 | 204 | 3.5 | 7.0 | 0.00 | 0.00 | 0.00 | 67 | 1014.0 |
| 20260508104542 | 59 | 191 | 2.6 | 8.7 | 0.00 | 0.00 | 0.00 | 66 | 1014.0 |
| 20260508104037 | 59 | 220 | 2.6 | 8.7 | 0.00 | 0.00 | 0.00 | 66 | 1013.9 |
| 20260508103537 | 60 | 193 | 3.5 | 7.8 | 0.00 | 0.00 | 0.00 | 65 | 1013.8 |
| 20260508103051 | 60 | 211 | 4.3 | 7.8 | 0.00 | 0.00 | 0.00 | 65 | 1013.8 |
| 20260508102534 | 60 | 185 | 4.3 | 7.8 | 0.00 | 0.00 | 0.00 | 65 | 1013.9 |
| 20260508102033 | 60 | 195 | 3.5 | 7.0 | 0.00 | 0.00 | 0.00 | 65 | 1013.8 |
| 20260508101533 | 60 | 189 | 3.5 | 7.0 | 0.00 | 0.00 | 0.00 | 65 | 1013.8 |
| 20260508101034 | 59 | 177 | 2.6 | 7.0 | 0.00 | 0.00 | 0.00 | 65 | 1013.6 |
| 20260508100033 | 59 | 194 | 2.6 | 7.0 | 0.00 | 0.00 | 0.00 | 65 | 1013.7 |
| 20260508095533 | 59 | 206 | 3.5 | 5.2 | 0.00 | 0.00 | 0.00 | 65 | 1013.6 |
| 20260508095033 | 59 | 204 | 2.6 | 5.2 | 0.00 | 0.00 | 0.00 | 65 | 1013.7 |
| 20260508094531 | 59 | 175 | 2.6 | 4.3 | 0.00 | 0.00 | 0.00 | 65 | 1013.7 |
| 20260508094032 | 59 | 193 | 1.7 | 3.5 | 0.00 | 0.00 | 0.00 | 65 | 1013.7 |
| 20260508093531 | 59 | 192 | 2.6 | 7.8 | 0.00 | 0.00 | 0.00 | 65 | 1013.7 |
| 20260508093038 | 59 | 196 | 3.5 | 7.8 | 0.00 | 0.00 | 0.00 | 65 | 1013.7 |
| 20260508092531 | 59 | 183 | 2.6 | 7.0 | 0.00 | 0.00 | 0.00 | 65 | 1013.8 |
| 20260508092030 | 59 | 208 | 3.5 | 7.0 | 0.00 | 0.00 | 0.00 | 65 | 1013.9 |
| 20260508091533 | 59 | 187 | 2.6 | 5.2 | 0.00 | 0.00 | 0.00 | 65 | 1014.0 |
| 20260508091028 | 59 | 196 | 2.6 | 4.3 | 0.00 | 0.00 | 0.00 | 66 | 1014.0 |
| 20260508090029 | 59 | 183 | 2.6 | 4.3 | 0.00 | 0.00 | 0.00 | 66 | 1014.0 |
| 20260508085531 | 58 | 183 | 2.6 | 5.2 | 0.00 | 0.00 | 0.00 | 66 | 1014.1 |
| 20260508085027 | 58 | 185 | 2.6 | 5.2 | 0.00 | 0.00 | 0.00 | 66 | 1014.1 |
| 20260508084528 | 58 | 191 | 2.6 | 4.3 | 0.00 | 0.00 | 0.00 | 66 | 1014.1 |
| 20260508084028 | 58 | 195 | 2.6 | 4.3 | 0.00 | 0.00 | 0.00 | 66 | 1014.2 |
| 20260508083527 | 58 | 195 | 1.7 | 5.2 | 0.00 | 0.00 | 0.00 | 66 | 1014.1 |
| 20260508083029 | 58 | 182 | 2.6 | 5.2 | 0.00 | 0.00 | 0.00 | 66 | 1014.1 |
| 20260508082526 | 58 | 173 | 2.6 | 6.1 | 0.00 | 0.00 | 0.00 | 66 | 1014.2 |
| 20260508082026 | 58 | 185 | 2.6 | 5.2 | 0.00 | 0.00 | 0.00 | 66 | 1014.2 |
| 20260508081526 | 58 | 208 | 3.5 | 5.2 | 0.00 | 0.00 | 0.00 | 66 | 1014.3 |
| 20260508081026 | 58 | 181 | 2.6 | 4.3 | 0.00 | 0.00 | 0.00 | 66 | 1014.3 |
| 20260508080029 | 58 | 183 | 1.7 | 4.3 | 0.00 | 0.00 | 0.00 | 66 | 1014.3 |
| 20260508075529 | 58 | 149 | 1.7 | 4.3 | 0.00 | 0.00 | 0.00 | 66 | 1014.4 |
| 20260508075031 | 58 | 164 | 1.7 | 5.2 | 0.00 | 0.00 | 0.00 | 66 | 1014.5 |
| 20260508074528 | 58 | 190 | 2.6 | 5.2 | 0.00 | 0.00 | 0.00 | 66 | 1014.5 |
| 20260508074026 | 58 | 183 | 2.6 | 7.0 | 0.00 | 0.00 | 0.00 | 66 | 1014.7 |
| 20260508073528 | 58 | 196 | 3.5 | 7.0 | 0.00 | 0.00 | 0.00 | 65 | 1014.7 |
| 20260508073032 | 58 | 185 | 2.6 | 5.2 | 0.00 | 0.00 | 0.00 | 65 | 1014.6 |
| 20260508072529 | 58 | 198 | 2.6 | 4.3 | 0.00 | 0.00 | 0.00 | 65 | 1014.8 |
| 20260508072026 | 58 | 198 | 2.6 | 4.3 | 0.00 | 0.00 | 0.00 | 65 | 1014.9 |
| 20260508071526 | 58 | 192 | 2.6 | 4.3 | 0.00 | 0.00 | 0.00 | 65 | 1015.0 |
| 20260508071025 | 58 | 179 | 2.6 | 5.2 | 0.00 | 0.00 | 0.00 | 65 | 1015.0 |
| 20260508070023 | 58 | 166 | 2.6 | 5.2 | 0.00 | 0.00 | 0.00 | 65 | 1015.1 |
| 20260508065521 | 58 | 165 | 1.7 | 4.3 | 0.00 | 0.00 | 0.00 | 65 | 1015.0 |
| 20260508065026 | 58 | 175 | 1.7 | 4.3 | 0.00 | 0.00 | 0.00 | 65 | 1015.0 |
| 20260508064526 | 58 | 179 | 1.7 | 3.5 | 0.00 | 0.00 | 0.00 | 65 | 1015.1 |
| 20260508064022 | 58 | 187 | 1.7 | 3.5 | 0.00 | 0.00 | 0.00 | 65 | 1015.2 |
| 20260508063521 | 58 | 163 | 1.7 | 3.5 | 0.00 | 0.00 | 0.00 | 65 | 1015.3 |
| 20260508063020 | 58 | 138 | 0.9 | 3.5 | 0.00 | 0.00 | 0.00 | 65 | 1015.2 |
| 20260508062523 | 58 | 117 | 1.7 | 3.5 | 0.00 | 0.00 | 0.00 | 65 | 1015.3 |
| 20260508062020 | 58 | 102 | 0.0 | 2.6 | 0.00 | 0.00 | 0.00 | 65 | 1015.3 |
| 20260508061520 | 58 | 102 | 1.7 | 2.6 | 0.00 | 0.00 | 0.00 | 65 | 1015.4 |
| 20260508061019 | 58 | 73 | 0.9 | 2.6 | 0.00 | 0.00 | 0.00 | 65 | 1015.2 |
| 20260508060020 | 58 | 70 | 0.9 | 2.6 | 0.00 | 0.00 | 0.00 | 65 | 1015.4 |
| 20260508055521 | 59 | 62 | 1.7 | 3.5 | 0.00 | 0.00 | 0.00 | 65 | 1015.4 |
| 20260508055019 | 59 | 60 | 0.9 | 3.5 | 0.00 | 0.00 | 0.00 | 65 | 1015.4 |
| 20260508054520 | 59 | 73 | 0.9 | 3.5 | 0.00 | 0.00 | 0.00 | 65 | 1015.4 |
| 20260508054019 | 59 | 75 | 0.9 | 2.6 | 0.00 | 0.00 | 0.00 | 65 | 1015.5 |
| 20260508053519 | 59 | 73 | 0.9 | 2.6 | 0.00 | 0.00 | 0.00 | 65 | 1015.6 |
| 20260508053019 | 59 | 160 | 0.9 | 2.6 | 0.00 | 0.00 | 0.00 | 65 | 1015.8 |
| 20260508052521 | 59 | 168 | 0.9 | 2.6 | 0.00 | 0.00 | 0.00 | 65 | 1015.8 |
| 20260508052019 | 59 | 171 | 0.0 | 3.5 | 0.00 | 0.00 | 0.00 | 65 | 1015.7 |
| 20260508051519 | 59 | 173 | 1.7 | 3.5 | 0.00 | 0.00 | 0.00 | 65 | 1015.7 |
| 20260508051018 | 60 | 168 | 2.6 | 4.3 | 0.00 | 0.00 | 0.00 | 64 | 1015.7 |
| 20260508050027 | 60 | 193 | 1.7 | 3.5 | 0.00 | 0.00 | 0.00 | 64 | 1015.5 |
| 20260508045518 | 60 | 195 | 0.9 | 4.3 | 0.00 | 0.00 | 0.00 | 63 | 1015.4 |
| 20260508045018 | 60 | 193 | 1.7 | 4.3 | 0.00 | 0.00 | 0.00 | 63 | 1015.6 |
| 20260508044518 | 60 | 185 | 2.6 | 4.3 | 0.00 | 0.00 | 0.00 | 63 | 1015.7 |
| 20260508044018 | 60 | 169 | 2.6 | 4.3 | 0.00 | 0.00 | 0.00 | 63 | 1015.6 |
| 20260508043517 | 60 | 143 | 1.7 | 4.3 | 0.00 | 0.00 | 0.00 | 62 | 1015.5 |
| 20260508043017 | 60 | 187 | 1.7 | 4.3 | 0.00 | 0.00 | 0.00 | 62 | 1015.5 |
| 20260508042518 | 60 | 122 | 1.7 | 5.2 | 0.00 | 0.00 | 0.00 | 62 | 1015.5 |
| 20260508042022 | 60 | 194 | 2.6 | 5.2 | 0.00 | 0.00 | 0.00 | 62 | 1015.4 |
| 20260508041517 | 60 | 173 | 2.6 | 6.1 | 0.00 | 0.00 | 0.00 | 63 | 1015.5 |
| 20260508041017 | 60 | 155 | 2.6 | 6.1 | 0.00 | 0.00 | 0.00 | 63 | 1015.4 |
| 20260508040019 | 60 | 167 | 2.6 | 6.1 | 0.00 | 0.00 | 0.00 | 63 | 1015.3 |
| 20260508035517 | 60 | 168 | 2.6 | 6.1 | 0.00 | 0.00 | 0.00 | 64 | 1015.3 |
| 20260508035017 | 60 | 164 | 2.6 | 5.2 | 0.00 | 0.00 | 0.00 | 64 | 1015.3 |
| 20260508034519 | 60 | 187 | 3.5 | 6.1 | 0.00 | 0.00 | 0.00 | 64 | 1015.2 |
| 20260508034017 | 60 | 166 | 2.6 | 7.0 | 0.00 | 0.00 | 0.00 | 64 | 1015.3 |
| 20260508033516 | 60 | 198 | 2.6 | 7.0 | 0.00 | 0.00 | 0.00 | 64 | 1015.4 |
| 20260508033016 | 60 | 99 | 2.6 | 5.2 | 0.00 | 0.00 | 0.00 | 63 | 1015.3 |
| 20260508032516 | 60 | 163 | 3.5 | 5.2 | 0.00 | 0.00 | 0.00 | 63 | 1015.3 |
| 20260508032016 | 60 | 146 | 2.6 | 5.2 | 0.00 | 0.00 | 0.00 | 63 | 1015.3 |
| 20260508031516 | 60 | 117 | 2.6 | 5.2 | 0.00 | 0.00 | 0.00 | 63 | 1015.3 |
| 20260508031015 | 60 | 165 | 2.6 | 5.2 | 0.00 | 0.00 | 0.00 | 62 | 1015.3 |
| 20260508030015 | 60 | 168 | 1.7 | 4.3 | 0.00 | 0.00 | 0.00 | 62 | 1015.3 |
| 20260508025514 | 60 | 181 | 1.7 | 3.5 | 0.00 | 0.00 | 0.00 | 62 | 1015.4 |
| 20260508025014 | 60 | 145 | 1.7 | 3.5 | 0.00 | 0.00 | 0.00 | 62 | 1015.4 |
| 20260508024515 | 60 | 146 | 1.7 | 5.2 | 0.00 | 0.00 | 0.00 | 62 | 1015.3 |
| 20260508024014 | 60 | 144 | 1.7 | 5.2 | 0.00 | 0.00 | 0.00 | 62 | 1015.3 |
| 20260508023514 | 60 | 156 | 2.6 | 7.0 | 0.00 | 0.00 | 0.00 | 62 | 1015.2 |
| 20260508023114 | 60 | 171 | 2.6 | 7.0 | 0.00 | 0.00 | 0.00 | 62 | 1015.2 |
| 20260508022513 | 60 | 178 | 1.7 | 5.2 | 0.00 | 0.00 | 0.00 | 62 | 1015.3 |
| 20260508022015 | 60 | 194 | 2.6 | 7.0 | 0.00 | 0.00 | 0.00 | 62 | 1015.2 |
| 20260508021514 | 60 | 195 | 2.6 | 7.0 | 0.00 | 0.00 | 0.00 | 62 | 1015.3 |
| 20260508021016 | 60 | 173 | 2.6 | 5.2 | 0.00 | 0.00 | 0.00 | 62 | 1015.3 |
| 20260508020022 | 60 | 162 | 3.5 | 5.2 | 0.00 | 0.00 | 0.00 | 62 | 1015.1 |
| 20260508015515 | 60 | 168 | 1.7 | 5.2 | 0.00 | 0.00 | 0.00 | 62 | 1015.1 |
| 20260508015015 | 60 | 108 | 2.6 | 7.0 | 0.00 | 0.00 | 0.00 | 62 | 1015.1 |
| 20260508014515 | 60 | 177 | 3.5 | 8.7 | 0.00 | 0.00 | 0.00 | 62 | 1015.1 |
| 20260508014017 | 60 | 179 | 4.3 | 8.7 | 0.00 | 0.00 | 0.00 | 61 | 1014.9 |
| 20260508013514 | 60 | 179 | 2.6 | 7.8 | 0.00 | 0.00 | 0.00 | 61 | 1015.0 |
| 20260508013014 | 60 | 171 | 2.6 | 7.8 | 0.00 | 0.00 | 0.00 | 61 | 1015.1 |
| 20260508012517 | 60 | 133 | 3.5 | 7.8 | 0.00 | 0.00 | 0.00 | 61 | 1015.2 |
| 20260508012014 | 60 | 154 | 5.2 | 7.8 | 0.00 | 0.00 | 0.00 | 60 | 1015.0 |
| 20260508011515 | 60 | 169 | 3.5 | 7.8 | 0.00 | 0.00 | 0.00 | 60 | 1014.9 |
| 20260508011013 | 60 | 144 | 4.3 | 8.7 | 0.00 | 0.00 | 0.00 | 60 | 1015.0 |
| 20260508010017 | 60 | 166 | 4.3 | 7.8 | 0.00 | 0.00 | 0.00 | 60 | 1014.9 |
| 20260508005515 | 60 | 135 | 3.5 | 7.8 | 0.00 | 0.00 | 0.00 | 60 | 1014.9 |
| 20260508005015 | 61 | 171 | 3.5 | 8.7 | 0.00 | 0.00 | 0.00 | 60 | 1014.9 |
| 20260508004514 | 61 | 158 | 4.3 | 8.7 | 0.00 | 0.00 | 0.00 | 59 | 1015.0 |
| 20260508004014 | 61 | 175 | 4.3 | 8.7 | 0.00 | 0.00 | 0.00 | 59 | 1015.0 |
| 20260508003514 | 61 | 133 | 3.5 | 9.6 | 0.00 | 0.00 | 0.00 | 58 | 1015.0 |
| 20260508003014 | 61 | 196 | 5.2 | 9.6 | 0.00 | 0.00 | 0.00 | 58 | 1014.9 |
| 20260508002513 | 62 | 196 | 4.3 | 9.6 | 0.00 | 0.00 | 0.00 | 57 | 1014.9 |
| 20260508002013 | 62 | 191 | 5.2 | 9.6 | 0.00 | 0.00 | 0.00 | 57 | 1015.0 |
| 20260508001533 | 62 | 200 | 2.6 | 8.7 | 0.00 | 0.00 | 0.00 | 57 | 1014.9 |
| 20260508001012 | 62 | 131 | 4.3 | 7.8 | 0.00 | 0.00 | 0.00 | 56 | 1014.9 |
| 20260508000009 | 62 | 175 | 4.3 | 8.7 | 0.00 | 0.00 | 0.00 | 56 | 1014.9 |
| 20260507235509 | 62 | 117 | 3.5 | 8.7 | 0.00 | 0.00 | 0.00 | 56 | 1014.9 |
| 20260507235009 | 62 | 184 | 3.5 | 7.8 | 0.00 | 0.00 | 0.00 | 56 | 1014.8 |
| 20260507234513 | 63 | 131 | 4.3 | 7.8 | 0.00 | 0.00 | 0.00 | 55 | 1014.8 |
| 20260507234052 | 63 | 139 | 3.5 | 9.6 | 0.00 | 0.00 | 0.00 | 55 | 1014.9 |
| 20260507233510 | 63 | 152 | 2.6 | 9.6 | 0.00 | 0.00 | 0.00 | 54 | 1014.7 |
| 20260507233015 | 64 | 146 | 5.2 | 8.7 | 0.00 | 0.00 | 0.00 | 53 | 1014.6 |
| 20260507232509 | 64 | 122 | 3.5 | 8.7 | 0.00 | 0.00 | 0.00 | 52 | 1014.8 |
| 20260507232008 | 64 | 189 | 3.5 | 8.7 | 0.00 | 0.00 | 0.00 | 51 | 1014.7 |
| 20260507231508 | 64 | 152 | 3.5 | 8.7 | 0.00 | 0.00 | 0.00 | 50 | 1014.7 |
| 20260507231008 | 64 | 117 | 2.6 | 9.6 | 0.00 | 0.00 | 0.00 | 49 | 1014.7 |
| 20260507230009 | 64 | 108 | 3.5 | 9.6 | 0.00 | 0.00 | 0.00 | 49 | 1014.8 |
| 20260507225510 | 65 | 110 | 3.5 | 7.8 | 0.00 | 0.00 | 0.00 | 48 | 1014.8 |